Showing default

CHINASAT 18, 44493

Orbit data source: Space-Track

CHINASAT 18, 44493 is a payload satellite owned by PLA SSF (CN) in HEO that was launched on Mon, 19 Aug 2019 UTC via a CHANG ZHENG 3B launch vehicle from the Xichang Space Center, China (XSC). Payload-class satellites include a variety of spacecraft equipped with specific instruments for various scientific and technological missions. These include communications satellites like Starlink; space stations such as the ISS; scientific satellites like the Hubble; Earth observation satellites from companies like Planet Labs, Umbra, and HawkEye 360; GPS; miniature CubeSats for education and research; and military/defense satellites.

Loading next visibility...
Identifier
44493, 2019-053A
Orbit
HEO
Country
Flag of CNCN / PRC
Related business
Manufacturer
CAST
Mission
Non-operational Civil Communications
Bus & Motor
DFH-4, DFH-4 LAE
Mass
~5,250 kg wet, ~2,500 kg dry
Launch date (UTC)
2019-08-19 (6 years ago)
Launch vehicle
CHANG ZHENG 3B
Launch site
Xichang Space Center, China (XSC)
Object type
Payload
Rocket body
Debris
Shape & HBR
Box + 2 Pan, 15.0 m
Radar Cross Section
34.063 m², Large (>1 m²)

Expand to show TLE details & history
Last TLE update: 1 day ago

TLE from 1 day ago
0 CHINASAT 18
1 44493U 19053A   25260.07910746  .00032179 -54593-6  31064-3 0  9993
2 44493  28.2826 204.6861 6494822  37.5531 353.5035  3.41001010 59895
Epoch: 2025-09-17T01:53Z
TLE epoch observation values (Epoch: 2025-09-17T01:53:54.884Z)
Latitude
0.00008°
Longitude
179.93356°
Altitude
742.569 km
Speed
9.517 km/s
True Right ascension
13h 38m 41s
True Declination
0° 00' 00"
Sunlit
Object was in daylight at epoch
Visualization orbit readout
Latitude
Unknown
Longitude
Unknown
Altitude
Unknown
Speed
Unknown
Apparent Right ascension
Unknown
Apparent Declination
Unknown
Sunlit
N/A
Visualization observer readout
Local Sidereal Time
23:21:23
Azimuth
Unknown
Elevation
Unknown
Doppler factor
Unknown
Orbital elements
Apogee altitude
24,382.522 km
Perigee altitude
158.556 km
Semi-major axis
18,648.676 km
Eccentricity
0.64948
Inclination
28.2826°
RAAN
204.6861°
Arg. of periapsis
37.5531°
True anomaly
322.09807°
Mean anomaly
353.5035°
Eccentric anomaly
342.01093°
Mean motion
0.85226 °/min
Orbital period
422.41 mins
BSTAR
0.00031064
Loading maneuver chart data...
Computing Atmospheric mass density...
Loading historical data...
Loading historical data...
Loading historical data...
Loading historical data...
Loading historical data...
Loading historical data...
Loading historical data...
Other satellites on launch #53 in the year 2019 (2019-08-19 UTC)

Documentation

Showing up to 5 results
|